Morgantown, WV

5:09 AM EST on January 18, 2018 (GMT -0500)
Morgantown Municipal-Hart

Weather History for KMGW - January, 2001

Change the Weather History Date:

Saturday, January 27, 2001

  Actual Average Record
Temperature  
Mean Temperature 30 °F 32 °F  
Max Temperature 35 °F 39 °F 64 °F (1967)
Min Temperature 26 °F 24 °F -1 °F (2003)
Degree Days  
Heating Degree Days 34 33  
Month to date heating degree days 913  
Since 1 July heating degree days 2897  
Cooling Degree Days 0 0  
Month to date cooling degree days 0  
Year to date cooling degree days 0  
Moisture  
Dew Point 26 °F    
Average Humidity 85    
Maximum Humidity 100    
Minimum Humidity 66    
Precipitation  
Precipitation 0.12 in 0.09 in 0.93 in (1952)
Month to date precipitation 2.44  
Year to date precipitation 2.44  
Sea Level Pressure  
Sea Level Pressure 30.08 in    
Wind  
Wind Speed 8 mph (WSW)    
Max Wind Speed 13 mph    
Max Gust Speed 22 mph    
Visibility 4 miles    
Events Fog , Rain , Snow    
T = Trace of Precipitation, MM = Missing Value Source: NWS Daily Summary

Daily Weather History Graph

Daily Weather History Graph

Search for Another Location

Airport or City:

Trip Planner

Search our weather history database for the weather conditions in past years. The results will help you decide how hot, cold, wet, or windy it might be!

Date:

Astronomy

Jan. 27, 2001 Rise Set
Actual Time 7:31 AM EST 5:33 PM EST
Civil Twilight 7:02 AM EST 6:02 PM EST
Nautical Twilight 6:30 AM EST 6:35 PM EST
Astronomical Twilight 5:58 AM EST 7:07 PM EST
Moon 9:27 AM EST (1/27) 8:34 PM EST (1/27)
Length of Visible Light 10h 59m
Length of Day
10h 02m
Waxing Crescent, 9% of the Moon is Illuminated
Jan 27
Waxing Crescent
Feb 1
First Quarter
Feb 8
Full
Feb 14
Last Quarter
Feb 23
New

Hourly Weather History & Observations

Time (EST) Temp. Windchill Dew Point Humidity Pressure Visibility Wind Dir Wind Speed Gust Speed Precip Events Conditions
12:22 AM 35.6 °F 29.2 °F 33.8 °F 93% 29.82 in 10.0 mi SSW 8.1 mph - 0.00 in Rain Light Rain
12:53 AM 35.1 °F 26.9 °F 33.1 °F 92% 29.85 in 10.0 mi SW 11.5 mph - 0.00 in Rain Light Rain
1:31 AM 33.8 °F 28.6 °F 33.8 °F 100% 29.82 in 10.0 mi SW 5.8 mph - 0.01 in Rain Light Rain
1:53 AM 34.0 °F 26.6 °F 33.1 °F 96% 29.85 in 5.0 mi SW 9.2 mph - 0.01 in Rain Light Rain
2:53 AM 34.0 °F 26.6 °F 33.1 °F 96% 29.86 in 4.0 mi SW 9.2 mph - 0.03 in Snow Light Snow
3:53 AM 33.1 °F 26.9 °F 32.0 °F 96% 29.86 in 4.0 mi SW 6.9 mph - 0.01 in Snow Light Snow
4:07 AM 33.8 °F 27.7 °F 32.0 °F 93% 29.84 in 4.0 mi WSW 6.9 mph - 0.00 in Snow Light Snow
4:17 AM 33.8 °F 28.6 °F 32.0 °F 93% 29.84 in 5.0 mi WSW 5.8 mph - 0.01 in Snow Light Snow
4:42 AM 33.8 °F 27.7 °F 32.0 °F 93% 29.85 in 2.5 mi WSW 6.9 mph - 0.01 in Snow Light Snow
4:53 AM 33.1 °F 27.7 °F 32.0 °F 96% 29.88 in 3.0 mi WSW 5.8 mph - 0.01 in Snow Light Snow
5:06 AM 33.8 °F 27.7 °F 32.0 °F 93% 29.85 in 7.0 mi Variable 6.9 mph - 0.00 in   Overcast
5:53 AM 33.1 °F 26.1 °F 30.9 °F 92% 29.89 in 5.0 mi WSW 8.1 mph - 0.01 in Snow Light Snow
6:15 AM 33.8 °F 26.4 °F 30.2 °F 87% 29.88 in 2.5 mi WSW 9.2 mph - 0.00 in Snow Light Snow
6:53 AM 32.0 °F 26.4 °F 30.9 °F 96% 29.91 in 2.5 mi WSW 5.8 mph - 0.00 in Snow Light Snow
6:59 AM 32.0 °F 26.4 °F 30.2 °F 93% 29.88 in 3.0 mi WSW 5.8 mph - 0.00 in Snow Light Snow
7:16 AM 32.0 °F 24.8 °F 30.2 °F 93% 29.89 in 2.5 mi WSW 8.1 mph 17.3 mph 0.00 in Snow Light Snow
7:18 AM 32.0 °F 24.8 °F 30.2 °F 93% 29.89 in 1.0 mi WSW 8.1 mph - 0.00 in Snow Light Snow
7:40 AM 32.0 °F 23.6 °F 30.2 °F 93% 29.91 in 0.5 mi WSW 10.4 mph 18.4 mph 0.02 in Fog , Snow Snow
7:53 AM 30.9 °F 22.8 °F 30.0 °F 96% 29.94 in 0.5 mi WSW 9.2 mph 19.6 mph 0.04 in Fog , Snow Light Snow
8:18 AM 30.2 °F 20.8 °F 28.4 °F 93% 29.94 in 2.0 mi WSW 11.5 mph - 0.00 in Snow Light Snow
8:53 AM 30.0 °F 22.4 °F 27.0 °F 88% 30.00 in 1.0 mi West 8.1 mph - 0.00 in Snow Light Snow
9:43 AM 30.2 °F 22.6 °F 24.8 °F 80% 30.01 in 3.0 mi West 8.1 mph 19.6 mph 0.00 in Snow Light Snow
9:53 AM 30.0 °F 21.7 °F 24.1 °F 79% 30.05 in 3.0 mi West 9.2 mph - 0.00 in Snow Light Snow
10:53 AM 28.0 °F 19.3 °F 24.1 °F 85% 30.11 in 0.5 mi West 9.2 mph - 0.00 in Fog , Snow Light Snow
11:13 AM 28.4 °F 20.4 °F 24.8 °F 86% 30.07 in 3.0 mi WSW 8.1 mph - 0.00 in   Overcast
11:53 AM 30.0 °F 20.0 °F 21.9 °F 72% 30.12 in 5.0 mi West 12.7 mph 21.9 mph 0.00 in Snow Light Snow
12:23 PM 28.4 °F 21.2 °F 23.0 °F 80% 30.10 in 1.0 mi Variable 6.9 mph 19.6 mph 0.00 in Snow Light Snow
12:53 PM 28.9 °F 21.1 °F 25.0 °F 85% 30.15 in 1.0 mi WSW 8.1 mph - 0.00 in Snow Light Snow
1:37 PM 28.4 °F 20.4 °F 24.8 °F 86% 30.11 in 1.0 mi WSW 8.1 mph 17.3 mph 0.00 in Snow Light Snow
1:53 PM 28.9 °F 21.1 °F 25.0 °F 85% 30.16 in 1.0 mi WSW 8.1 mph - 0.00 in Snow Light Snow
2:00 PM 28.4 °F 20.4 °F 24.8 °F 86% 30.12 in 3.0 mi West 8.1 mph - 0.00 in   Haze
2:14 PM 28.4 °F 18.5 °F 24.8 °F 86% 30.13 in 2.5 mi WSW 11.5 mph - 0.00 in Snow Light Snow
2:22 PM 28.4 °F 21.2 °F 24.8 °F 86% 30.14 in 1.2 mi Variable 6.9 mph - 0.00 in Snow Light Snow
2:32 PM 28.4 °F 19.7 °F 24.8 °F 86% 30.14 in 2.0 mi West 9.2 mph - 0.00 in Snow Light Snow
2:53 PM 28.9 °F 21.1 °F 25.0 °F 85% 30.19 in 1.2 mi WSW 8.1 mph - 0.00 in Snow Light Snow
3:19 PM 28.4 °F 20.4 °F 24.8 °F 86% 30.16 in 2.0 mi West 8.1 mph - 0.00 in Snow Light Snow
3:24 PM 28.4 °F 19.7 °F 24.8 °F 86% 30.17 in 3.0 mi West 9.2 mph - 0.00 in Snow Light Snow
3:53 PM 28.9 °F 22.8 °F 25.0 °F 85% 30.22 in 1.5 mi Variable 5.8 mph - 0.00 in Snow Light Snow
4:01 PM 28.4 °F 19.7 °F 24.8 °F 86% 30.18 in 1.0 mi WSW 9.2 mph - 0.00 in Snow Light Snow
4:22 PM 28.4 °F 21.2 °F 24.8 °F 86% 30.19 in 3.0 mi Variable 6.9 mph - 0.01 in Snow Light Snow
4:46 PM 28.4 °F 18.5 °F 24.8 °F 86% 30.21 in 2.5 mi WSW 11.5 mph 18.4 mph 0.01 in Snow Light Snow
4:53 PM 28.0 °F 19.3 °F 25.0 °F 88% 30.25 in 1.8 mi West 9.2 mph - 0.01 in Snow Light Snow
5:01 PM 28.4 °F 19.1 °F 24.8 °F 86% 30.21 in 2.0 mi West 10.4 mph - 0.00 in Snow Light Snow
5:14 PM 28.4 °F 19.1 °F 24.8 °F 86% 30.22 in 5.0 mi West 10.4 mph - 0.00 in   Overcast
5:26 PM 28.4 °F 22.2 °F 21.2 °F 74% 30.22 in 5.0 mi Variable 5.8 mph 16.1 mph 0.00 in   Haze
5:53 PM 28.0 °F 19.3 °F 21.0 °F 75% 30.27 in 5.0 mi West 9.2 mph - 0.00 in Snow Light Snow
6:00 PM 28.4 °F 19.7 °F 21.2 °F 74% 30.24 in 9.0 mi West 9.2 mph - 0.00 in Snow Light Snow
6:18 PM 28.4 °F 20.4 °F 21.2 °F 74% 30.24 in 9.0 mi West 8.1 mph - 0.00 in Snow Light Snow
6:53 PM 28.0 °F 21.7 °F 21.9 °F 78% 30.28 in 9.0 mi West 5.8 mph - 0.00 in Snow Light Snow
7:53 PM 27.0 °F 18.0 °F 21.0 °F 78% 30.29 in 9.0 mi WSW 9.2 mph - 0.00 in Snow Light Snow
8:17 PM 26.6 °F 18.2 °F 19.4 °F 74% 30.24 in 9.0 mi WSW 8.1 mph - 0.00 in Snow Light Snow
8:44 PM 26.6 °F 21.2 °F 17.6 °F 69% 30.25 in 9.0 mi West 4.6 mph - 0.00 in Snow Light Snow
8:53 PM 27.0 °F 19.5 °F 18.0 °F 69% 30.29 in 9.0 mi Variable 6.9 mph - 0.00 in Snow Light Snow
9:42 PM 26.6 °F 17.5 °F 17.6 °F 69% 30.28 in 9.0 mi West 9.2 mph - 0.00 in Snow Light Snow
9:53 PM 27.0 °F 20.5 °F 17.1 °F 66% 30.32 in 9.0 mi WSW 5.8 mph - 0.00 in Snow Light Snow
10:00 PM 26.6 °F 19.1 °F 17.6 °F 69% 30.28 in 9.0 mi Variable 6.9 mph - 0.00 in Snow Light Snow
10:53 PM 26.1 °F 16.2 °F 17.1 °F 69% 30.34 in 9.0 mi West 10.4 mph 20.7 mph 0.00 in Snow Light Snow
11:53 PM 26.1 °F 18.4 °F 16.0 °F 66% 30.32 in 10.0 mi Variable 6.9 mph - 0.00 in   Mostly Cloudy